Terug naar catalogus

OPS 9442 (DSCS 2-12) DEB

ActiefMEO
NORAD 59989·DEBRIS·🇺🇸 United States

Gelanceerd Dec 14, 1978 vanaf Cape Canaveral Space Force Station

Loading…

Volgende Passages (komende 24 uur)

TLE

VersSource: Space-Track

Epoch: Sep 13, 2026, 21:39 UTC

1 59989U 78113E   26256.90231086 -.00000307  00000-0  00000+0 0  9990
2 59989   7.9815 301.7824 0168697  89.4526 272.3997  0.98458021 46093

Volg OPS 9442 (DSCS 2-12) DEB in realtime met AllMySat

Download on the App Store